Weather History for Alva, OK

Change the Weather History Date:

Thursday, April 3, 2014

  Actual Average Record
Temperature  
Mean Temperature 54 °F -  
Max Temperature 68 °F 68 °F 91 °F (2011)
Min Temperature 37 °F 43 °F 19 °F (1975)
Degree Days  
Heating Degree Days 12    
Growing Degree Days 4 (Base 50)    
Moisture  
Dew Point 44 °F    
Average Humidity 75    
Maximum Humidity 100    
Minimum Humidity 48    
Precipitation  
Precipitation 0.00 in - - ()
Sea Level Pressure  
Sea Level Pressure 29.72 in    
Wind  
Wind Speed 13 mph (NW)    
Max Wind Speed 29 mph    
Max Gust Speed 37 mph    
Visibility 9 miles    
Events      
Averages and records for this station are not official NWS values.
T = Trace of Precipitation, MM = Missing Value Source: NWS Daily Summary

Daily Weather History Graph

Daily Weather History Graph

Search for Another Location

Airport:

Trip Planner

Search our weather history database for the weather conditions in past years. The results will help you decide how hot, cold, wet, or windy it might be!

Date:

Astronomy

Apr. 03, 2014 Rise Set
Actual Time 7:17 AM CDT 7:58 PM CDT
Civil Twilight 6:51 AM CDT 8:24 PM CDT
Nautical Twilight 6:20 AM CDT 8:55 PM CDT
Astronomical Twilight 5:49 AM CDT 9:27 PM CDT
Moon 9:52 AM CDT (4/3) No Moon Set
Length of Visible Light 13h 33m
Length of Day
12h 41m
Waxing Crescent, 17% of the Moon is Illuminated
Apr 3
Waxing Crescent
Apr 7
First Quarter
Apr 15
Full
Apr 22
Last Quarter
Apr 29
New

Hourly Weather History & Observations

Time (CDT) Temp. Windchill Dew Point Humidity Pressure Visibility Wind Dir Wind Speed Gust Speed Precip Events Conditions
12:15 AM 57.2 °F - 53.6 °F 88% 29.57 in 8.0 mi NE 5.8 mph - N/A   Scattered Clouds
12:55 AM 59.0 °F - 57.2 °F 94% 29.56 in 9.0 mi SSE 8.1 mph - N/A   Overcast
1:15 AM 68.0 °F - 62.6 °F 83% 29.55 in 10.0 mi WSW 4.6 mph 17.3 mph N/A   Overcast
1:35 AM 68.0 °F - 64.4 °F 88% 29.54 in 10.0 mi SSW 10.4 mph - N/A   Overcast
1:55 AM 68.0 °F - 64.4 °F 88% 29.54 in 10.0 mi SSW 10.4 mph 16.1 mph N/A   Mostly Cloudy
2:15 AM 68.0 °F - 64.4 °F 88% 29.54 in 9.0 mi SSW 8.1 mph 16.1 mph N/A   Mostly Cloudy
2:35 AM 57.2 °F - 55.4 °F 94% 29.54 in 7.0 mi SW 8.1 mph - N/A   Overcast
2:55 AM 66.2 °F - 64.4 °F 94% 29.54 in 10.0 mi SW 8.1 mph - N/A   Overcast
3:15 AM 66.2 °F - 64.4 °F 94% 29.53 in 8.0 mi SSW 6.9 mph - N/A   Overcast
3:35 AM 53.6 °F - 50.0 °F 88% 29.54 in 7.0 mi North 11.5 mph - N/A   Overcast
3:55 AM 53.6 °F - 50.0 °F 88% 29.56 in 7.0 mi North 10.4 mph - N/A   Overcast
4:15 AM 53.6 °F - 50.0 °F 88% 29.57 in 7.0 mi NNW 11.5 mph - N/A   Overcast
4:35 AM 53.6 °F - 50.0 °F 88% 29.57 in 7.0 mi NNW 11.5 mph 19.6 mph N/A   Overcast
4:55 AM 51.8 °F - 50.0 °F 94% 29.57 in 7.0 mi NNW 11.5 mph - N/A   Overcast
5:15 AM 50.0 °F - 48.2 °F 94% 29.58 in 6.0 mi NNW 16.1 mph - N/A   Overcast
5:35 AM 48.2 °F - 46.4 °F 93% 29.59 in 7.0 mi NNW 15.0 mph 20.7 mph N/A   Overcast
5:55 AM 48.2 °F - 46.4 °F 93% 29.61 in 7.0 mi NNW 15.0 mph 19.6 mph N/A   Overcast
6:15 AM 46.4 °F 39.0 °F 44.6 °F 93% 29.61 in 7.0 mi NNW 19.6 mph 23.0 mph N/A   Overcast
6:30 AM 46.4 °F 40.7 °F 44.6 °F 93% 29.63 in 7.0 mi NNW 12.7 mph 23.0 mph N/A   Overcast
6:55 AM 46.4 °F 41.1 °F 44.6 °F 93% 29.64 in 8.0 mi NNW 11.5 mph - N/A   Overcast
7:10 AM 44.6 °F 37.2 °F 44.6 °F 100% 29.65 in 8.0 mi NNW 17.3 mph - N/A   Overcast
7:30 AM 44.6 °F 38.1 °F 44.6 °F 100% 29.67 in 9.0 mi NNW 13.8 mph - N/A   Overcast
7:50 AM 44.6 °F 38.4 °F 44.6 °F 100% 29.68 in 9.0 mi NNW 12.7 mph - N/A   Overcast
8:10 AM 44.6 °F 37.4 °F 42.8 °F 93% 29.69 in 9.0 mi NW 16.1 mph - N/A   Overcast
8:35 AM 44.6 °F 37.4 °F 41.0 °F 87% 29.70 in 10.0 mi NW 16.1 mph - N/A   Overcast
8:50 AM 44.6 °F 36.9 °F 41.0 °F 87% 29.71 in 10.0 mi NW 18.4 mph 21.9 mph N/A   Overcast
9:10 AM 46.4 °F 39.5 °F 41.0 °F 81% 29.71 in 10.0 mi NNW 17.3 mph - N/A   Overcast
9:30 AM 46.4 °F 39.5 °F 41.0 °F 81% 29.71 in 10.0 mi NW 17.3 mph 23.0 mph N/A   Overcast
9:50 AM 46.4 °F 39.2 °F 41.0 °F 81% 29.72 in 10.0 mi NNW 18.4 mph 24.2 mph N/A   Overcast
10:10 AM 48.2 °F - 41.0 °F 76% 29.71 in 10.0 mi NW 12.7 mph 20.7 mph N/A   Mostly Cloudy
10:30 AM 50.0 °F - 41.0 °F 71% 29.71 in 10.0 mi NW 16.1 mph 25.3 mph N/A   Mostly Cloudy
10:50 AM 50.0 °F - 41.0 °F 71% 29.71 in 10.0 mi WNW 20.7 mph 26.5 mph N/A   Mostly Cloudy
11:15 AM 51.8 °F - 41.0 °F 67% 29.71 in 10.0 mi NW 19.6 mph 25.3 mph N/A   Scattered Clouds
11:30 AM 51.8 °F - 41.0 °F 67% 29.72 in 10.0 mi WNW 18.4 mph 25.3 mph N/A   Partly Cloudy
11:50 AM 51.8 °F - 41.0 °F 67% 29.72 in 10.0 mi NW 18.4 mph - N/A   Mostly Cloudy
12:10 PM 51.8 °F - 41.0 °F 67% 29.72 in 10.0 mi NNW 17.3 mph 24.2 mph N/A   Mostly Cloudy
12:30 PM 51.8 °F - 41.0 °F 67% 29.72 in 10.0 mi NW 18.4 mph 21.9 mph N/A   Scattered Clouds
12:50 PM 53.6 °F - 41.0 °F 62% 29.72 in 10.0 mi WNW 15.0 mph 25.3 mph N/A   Scattered Clouds
1:10 PM 53.6 °F - 41.0 °F 62% 29.72 in 10.0 mi NW 16.1 mph 25.3 mph N/A   Clear
1:30 PM 55.4 °F - 41.0 °F 58% 29.71 in 10.0 mi NNW 16.1 mph 20.7 mph N/A   Clear
1:50 PM 55.4 °F - 41.0 °F 58% 29.72 in 10.0 mi NW 13.8 mph 20.7 mph N/A   Clear
2:10 PM 57.2 °F - 41.0 °F 55% 29.72 in 10.0 mi NW 12.7 mph 19.6 mph N/A   Clear
2:30 PM 57.2 °F - 41.0 °F 55% 29.71 in 10.0 mi NW 15.0 mph 23.0 mph N/A   Clear
2:50 PM 59.0 °F - 41.0 °F 51% 29.72 in 10.0 mi WNW 11.5 mph 18.4 mph N/A   Clear
3:10 PM 59.0 °F - 41.0 °F 51% 29.73 in 10.0 mi NW 9.2 mph - N/A   Clear
3:30 PM 59.0 °F - 41.0 °F 51% 29.73 in 10.0 mi WNW 9.2 mph 20.7 mph N/A   Clear
3:50 PM 60.8 °F - 41.0 °F 48% 29.74 in 10.0 mi NNW 16.1 mph 23.0 mph N/A   Partly Cloudy
4:10 PM 59.0 °F - 41.0 °F 51% 29.75 in 10.0 mi NW 25.3 mph 31.1 mph N/A   Scattered Clouds
4:30 PM 55.4 °F - 39.2 °F 54% 29.75 in 10.0 mi NW 21.9 mph 28.8 mph N/A   Clear
4:50 PM 55.4 °F - 39.2 °F 54% 29.76 in 10.0 mi NW 20.7 mph 25.3 mph N/A   Clear
5:10 PM 55.4 °F - 39.2 °F 54% 29.77 in 10.0 mi NNW 18.4 mph 26.5 mph N/A   Partly Cloudy
5:30 PM 53.6 °F - 37.4 °F 54% 29.78 in 10.0 mi NW 23.0 mph 28.8 mph N/A   Partly Cloudy
5:50 PM 53.6 °F - 37.4 °F 54% 29.80 in 10.0 mi NW 26.5 mph 32.2 mph N/A   Mostly Cloudy
6:10 PM 53.6 °F - 37.4 °F 54% 29.82 in 10.0 mi NW 23.0 mph 28.8 mph N/A   Mostly Cloudy
6:30 PM 50.0 °F - 37.4 °F 62% 29.84 in 10.0 mi NW 27.6 mph 34.5 mph N/A   Overcast
6:50 PM 48.2 °F - 37.4 °F 66% 29.86 in 10.0 mi NW 19.6 mph 29.9 mph N/A   Overcast
7:10 PM 48.2 °F - 37.4 °F 66% 29.87 in 10.0 mi NNW 18.4 mph 25.3 mph N/A   Overcast
7:30 PM 48.2 °F - 37.4 °F 66% 29.88 in 10.0 mi NNW 18.4 mph 29.9 mph N/A   Overcast
7:50 PM 46.4 °F 39.0 °F 35.6 °F 66% 29.91 in 10.0 mi NW 19.6 mph 31.1 mph N/A   Overcast
8:10 PM 46.4 °F 38.1 °F 33.8 °F 62% 29.92 in 10.0 mi NNW 24.2 mph 32.2 mph N/A   Overcast
8:50 PM 42.8 °F 32.5 °F 32.0 °F 66% 29.96 in 10.0 mi NW 28.8 mph 36.8 mph N/A   Overcast
9:10 PM 41.0 °F 31.4 °F 32.0 °F 70% 29.98 in 10.0 mi NNW 21.9 mph 29.9 mph N/A   Overcast
9:30 PM 41.0 °F 32.2 °F 32.0 °F 70% 29.99 in 10.0 mi NNW 18.4 mph 29.9 mph N/A   Overcast
11:15 PM 39.2 °F 31.2 °F 32.0 °F 75% 30.03 in 10.0 mi NNW 13.8 mph 23.0 mph N/A   Clear
11:35 PM 39.2 °F 32.0 °F 32.0 °F 75% 30.04 in 10.0 mi NNW 11.5 mph - N/A   Clear
11:55 PM 37.4 °F 30.3 °F 32.0 °F 81% 30.05 in 10.0 mi NW 10.4 mph - N/A   Clear